Regional Weather Roundup
Issued by NWS Little Rock, AR

Home | Current Version | Previous Version | Graphics & Text | Print | Product List | Glossary On
Versions: 1 2 3 4 5 6 7 8 9 10 11 12 13 14 15 16 17 18 19 20 21 22 23 24 25 26 27 28 29 30 31 32 33 34 35 36 37 38 39 40 41 42 43 44 45 46 47 48 49 50
000
ASUS44 KLZK 181605
RWRLZK

WEATHER ROUNDUP FOR ARKANSAS
NATIONAL WEATHER SERVICE LITTLE ROCK AR
1000 AM CST THU DEC 18 2014

NOTE: "FAIR" INDICATES FEW OR NO CLOUDS BELOW 12,000 FEET WITH NO
SIGNIFICANT WEATHER AND/OR OBSTRUCTIONS TO VISIBILITY.

ARZ001-003-010-029-181700-
NORTHWEST ARKANSAS

CITY           SKY/WX    TMP DP  RH WIND       PRES   REMARKS
FAYETTEVILLE   CLOUDY    37  36  96 S3        30.19S
FORT SMITH     CLOUDY    38  35  89 E9        30.23S
HARRISON       CLOUDY    36  35  96 SE9       30.20S
BENTONVILLE    CLOUDY    37  36  93 S6        30.19S
ROGERS         CLOUDY    37  36  96 S3        30.19S FOG
SILOAM SPGS    CLOUDY    37  30  75 S5        30.21R
HIGHFILL       CLOUDY    37  37 100 S6        30.18S FOG
SPRINGDALE     CLOUDY    37  36  93 SE9       30.20S
$$

ARZ004-005-016-181700-
NORTH CENTRAL ARKANSAS

CITY           SKY/WX    TMP DP  RH WIND       PRES   REMARKS
BATESVILLE     CLOUDY    37  36  93 SE3       30.27S
FLIPPIN        CLOUDY    36  30  80 SE6       30.23S
MTN HOME       CLOUDY    35  34  96 SE6       30.22F FOG     WCI  30
$$

ARZ040-041-181700-
WEST CENTRAL ARKANSAS

CITY           SKY/WX    TMP DP  RH WIND       PRES   REMARKS
MENA           CLOUDY    41  37  87 CALM      30.21R
MOUNT IDA      CLOUDY    39  38  96 CALM      30.19R FOG
$$

ARZ009-017-025-026-028-181700-
NORTHEAST ARKANSAS

CITY           SKY/WX    TMP DP  RH WIND       PRES   REMARKS
CORNING        PTSUNNY   37  36  93 NE8       30.30R FOG
JONESBORO      CLOUDY    38  36  92 E10       30.28R
NEWPORT        LGT RAIN  39  37  92 E6        30.29S VSB 1/2
WALNUT RIDGE   CLOUDY    37  34  87 NE8       30.28R
BLYTHEVILLE    CLOUDY    39  36  89 NE8       30.30R
NW BLYTHEVILLE CLOUDY    37  36  93 NE7       30.29R
$$

ARZ022-023-033-042-044-181700-
CENTRAL ARKANSAS

CITY           SKY/WX    TMP DP  RH WIND       PRES   REMARKS
LITTLE ROCK    CLOUDY    39  36  89 NE6       30.26R FOG
N LITTLE ROCK  CLOUDY    38  38 100 NE6       30.26R
JACKSONVILLE   CLOUDY    39  37  93 NE5       30.25S FOG
SEARCY         CLOUDY    39  38  96 NE6       30.28S FOG
HOT SPRINGS    CLOUDY    39  37  92 E5        30.23R FOG
RUSSELLVILLE   CLOUDY    38  34  85 E3        30.24S
CLINTON        CLOUDY    37  36  93 CALM      30.27S
$$

ARZ036-181700-
EAST ARKANSAS

CITY           SKY/WX    TMP DP  RH WIND       PRES   REMARKS
WEST MEMPHIS   CLOUDY    40  38  93 NE5       30.27R
$$

ARZ050-053-066-070-073-181700-
SOUTHWEST ARKANSAS

CITY           SKY/WX    TMP DP  RH WIND       PRES   REMARKS
ARKADELPHIA    CLOUDY    40  40 100 NE7       30.25R FOG
CAMDEN         CLOUDY    45  39  81 CALM      30.23S
TEXARKANA      CLOUDY    42  41  96 E5        30.21R
EL DORADO      CLOUDY    44  43  96 CALM      30.21S
DE QUEEN       CLOUDY    41  40  96 E6        30.21R FOG
$$

ARZ056-057-069-181700-
SOUTHEAST ARKANSAS

CITY           SKY/WX    TMP DP  RH WIND       PRES   REMARKS
PINE BLUFF     CLOUDY    41  39  93 NE5       30.25R
STUTTGART      CLOUDY    39  36  87 NE7       30.26S
MONTICELLO     CLOUDY    44  41  89 E7        30.24R

$$




USA.gov is the U.S. government's official web portal to all federal, state and local government web resources and services.